Luxembourg, Luxembourg

1:33 PM CET on November 20, 2019 (GMT +0100)
Luxembourg

Weather History for ELLX - October, 2019

Change the Weather History Date:

Saturday, October 19, 2019

  Actual Average Record
Temperature  
Mean Temperature 52 °F -  
Max Temperature 56 °F 48 °F 70 °F (2014)
Min Temperature 48 °F 37 °F 32 °F (1999)
Degree Days  
Heating Degree Days 13    
Growing Degree Days 2 (Base 50)    
Moisture  
Dew Point 50 °F    
Average Humidity 93    
Maximum Humidity 100    
Minimum Humidity 82    
Precipitation  
Precipitation 0.08 in 0.11 in - ()
Sea Level Pressure  
Sea Level Pressure 29.75 in    
Wind  
Wind Speed 9 mph ()    
Max Wind Speed 14 mph    
Max Gust Speed -    
Visibility 6.9 miles    
Events Fog , Rain    
Averages and records for this station are not official NWS values.
T = Trace of Precipitation, MM = Missing Value Source: Averaged Metar Reports

Daily Weather History Graph

Daily Weather History Graph

Search for Another Location

Airport or City:

Astronomy

Oct. 19, 2019 Rise Set
Actual Time 8:02 AM CEST 6:37 PM CEST
Civil Twilight 7:29 AM CEST 7:09 PM CEST
Nautical Twilight 6:52 AM CEST 7:47 PM CEST
Astronomical Twilight 6:15 AM CEST 8:24 PM CEST
Moon 10:07 PM CEST (10/19) 1:42 PM CEST (10/19)
Length of Visible Light 11h 40m
Length of Day
10h 35m
Waning Gibbous, 72% of the Moon is Illuminated
Oct 19
Waning Gibbous
Oct 21
Last Quarter
Oct 28
New
Nov 4
First Quarter
Nov 12
Full

Hourly Weather History & Observations

Time (CEST) Temp. Dew Point Humidity Pressure Visibility Wind Dir Wind Speed Gust Speed Precip Events Conditions
12:00 AM 49 °F 45 °F 83% 29.85 in 19 mi South 8.9 mph - -   Mostly Cloudy
12:20 AM 48.2 °F 46.4 °F 93% 29.83 in - South 10.4 mph - N/A   Clear
12:50 AM 48.2 °F 44.6 °F 87% 29.83 in - South 10.4 mph - N/A   Clear
1:20 AM 48.2 °F 46.4 °F 93% 29.80 in - South 10.4 mph - N/A   Clear
1:50 AM 50.0 °F 46.4 °F 87% 29.80 in 6.2 mi South 10.4 mph - N/A   Unknown
2:00 AM 49 °F 46 °F 86% 29.83 in 25 mi South 11.2 mph - -   Overcast
2:20 AM 50.0 °F 46.4 °F 87% 29.80 in 6.2 mi South 11.5 mph - N/A   Scattered Clouds
2:50 AM 48.2 °F 46.4 °F 93% 29.80 in 6.2 mi South 10.4 mph - N/A   Unknown
3:00 AM 49 °F 47 °F 88% 29.83 in 19 mi South 8.9 mph - -   Overcast
3:20 AM 50.0 °F 46.4 °F 87% 29.80 in 6.2 mi South 11.5 mph - N/A   Mostly Cloudy
3:50 AM 50.0 °F 46.4 °F 87% 29.80 in 6.2 mi South 9.2 mph - N/A   Mostly Cloudy
4:00 AM 49 °F 47 °F 90% 29.81 in 18 mi South 8.9 mph - -   Overcast
4:20 AM 50.0 °F 48.2 °F 94% 29.77 in 6.2 mi South 8.1 mph - N/A Rain Light Rain Showers
4:50 AM 50.0 °F 48.2 °F 94% 29.77 in 6.2 mi South 5.8 mph - N/A Rain Light Rain
5:20 AM 50.0 °F 48.2 °F 94% 29.77 in 6.2 mi South 9.2 mph - N/A Rain Light Rain
5:50 AM 50.0 °F 48.2 °F 94% 29.77 in 6.2 mi South 6.9 mph - N/A   Mostly Cloudy
6:00 AM 49 °F 48 °F 97% 29.78 in 14 mi South 6.7 mph - - Rain Light Rain
6:20 AM 50.0 °F 48.2 °F 94% 29.77 in 6.2 mi South 8.1 mph - N/A   Mostly Cloudy
6:50 AM 50.0 °F 50.0 °F 100% 29.74 in 1.6 mi South 6.9 mph - N/A   Mostly Cloudy
7:00 AM 50 °F 50 °F 98% 29.76 in 2 mi South 6.7 mph - -   Mist
7:20 AM 50.0 °F 50.0 °F 100% 29.74 in 0.5 mi South 6.9 mph - N/A Fog Fog
7:50 AM 51.8 °F 51.8 °F 100% 29.74 in 0.5 mi South 9.2 mph - N/A Fog Fog
8:00 AM 51 °F 51 °F 99% 29.74 in 1 mi South 8.9 mph - - Fog Heavy Fog
8:20 AM 51.8 °F 51.8 °F 100% 29.74 in 0.9 mi South 11.5 mph - N/A Rain Light Rain
8:50 AM 51.8 °F 51.8 °F 100% 29.74 in 1.1 mi South 11.5 mph - N/A Rain Light Rain
9:00 AM 52 °F 51 °F 97% 29.75 in 1 mi South 11.2 mph - - Rain Light Rain
9:20 AM 51.8 °F 51.8 °F 100% 29.74 in 1.9 mi South 11.5 mph - N/A   Mostly Cloudy
9:50 AM 51.8 °F 51.8 °F 100% 29.74 in 2.2 mi South 9.2 mph - N/A   Mostly Cloudy
10:00 AM 52 °F 52 °F 98% 29.75 in 2 mi SSW 8.9 mph - - Rain Light Rain
10:20 AM 51.8 °F 51.8 °F 100% 29.74 in 2.8 mi South 9.2 mph - N/A   Mostly Cloudy
10:50 AM 53.6 °F 51.8 °F 94% 29.74 in 5.0 mi South 9.2 mph - N/A   Mostly Cloudy
11:20 AM 53.6 °F 51.8 °F 94% 29.74 in 6.2 mi South 11.5 mph - N/A   Mostly Cloudy
11:50 AM 53.6 °F 51.8 °F 94% 29.74 in 6.2 mi South 11.5 mph - N/A Rain Light Rain
12:00 PM 54 °F 52 °F 92% 29.75 in 12 mi South 11.2 mph - - Rain Light Rain
12:20 PM 55.4 °F 53.6 °F 94% 29.74 in 6.2 mi South 11.5 mph - N/A   Mostly Cloudy
12:50 PM 55.4 °F 51.8 °F 88% 29.74 in 6.2 mi South 13.8 mph - N/A Rain Light Rain
1:00 PM 55 °F 52 °F 88% 29.74 in 19 mi South 13.4 mph - - Rain Light Rain
1:20 PM 55.4 °F 51.8 °F 88% 29.74 in 6.2 mi South 13.8 mph - N/A   Mostly Cloudy
1:50 PM 57.2 °F 51.8 °F 82% 29.74 in 6.2 mi South 12.7 mph - N/A   Mostly Cloudy
2:00 PM 56 °F 52 °F 83% 29.73 in 19 mi South 13.4 mph - - Rain Light Rain
2:20 PM 55.4 °F 51.8 °F 88% 29.71 in 6.2 mi SSW 10.4 mph - N/A Rain Light Rain
2:50 PM 55.4 °F 53.6 °F 94% 29.71 in 6.2 mi South 6.9 mph - N/A Rain Light Rain Showers
3:20 PM 55.4 °F 53.6 °F 94% 29.71 in 6.2 mi SW 10.4 mph - N/A Rain Light Rain Showers
3:50 PM 55.4 °F 53.6 °F 94% 29.71 in 6.2 mi SW 5.8 mph - N/A Rain Light Rain Showers
4:00 PM 56 °F 54 °F 89% 29.71 in 6 mi SW 6.7 mph - - Rain Light Rain Showers
4:20 PM 55.4 °F 53.6 °F 94% 29.71 in 6.2 mi SW 6.9 mph - N/A   Mostly Cloudy
4:50 PM 55.4 °F 51.8 °F 88% 29.71 in 6.2 mi WSW 11.5 mph - N/A   Mostly Cloudy
5:00 PM 56 °F 53 °F 86% 29.72 in 9 mi SW 11.2 mph - - Rain Light Rain Showers
5:20 PM 51.8 °F 50.0 °F 94% 29.71 in 6.2 mi West 11.5 mph - N/A   Mostly Cloudy
5:50 PM 53.6 °F 50.0 °F 88% 29.71 in 6.2 mi WSW 10.4 mph - N/A   Scattered Clouds
6:00 PM 53 °F 50 °F 85% 29.73 in 9 mi WSW 11.2 mph - - Rain Light Rain Showers
6:20 PM 51.8 °F 50.0 °F 94% 29.71 in 6.2 mi WSW 5.8 mph - N/A   Mostly Cloudy
6:50 PM 51.8 °F 50.0 °F 94% 29.74 in 6.2 mi South 2.3 mph - N/A   Mostly Cloudy
7:20 PM 51.8 °F 50.0 °F 94% 29.74 in 6.2 mi SSW 3.5 mph - N/A   Mostly Cloudy
7:50 PM 51.8 °F 50.0 °F 94% 29.74 in 6.2 mi SSE 4.6 mph - N/A   Mostly Cloudy
8:00 PM 52 °F 50 °F 92% 29.75 in 12 mi SE 4.5 mph - -   Partly Cloudy
8:20 PM 51.8 °F 50.0 °F 94% 29.74 in 6.2 mi SSE 3.5 mph - N/A   Mostly Cloudy
8:50 PM 51.8 °F 50.0 °F 94% 29.74 in 6.2 mi South 5.8 mph - N/A   Mostly Cloudy
9:00 PM 52 °F 50 °F 91% 29.75 in 19 mi South 6.7 mph - -   Overcast
9:20 PM 51.8 °F 50.0 °F 94% 29.74 in 6.2 mi South 8.1 mph - N/A   Mostly Cloudy
9:50 PM 51.8 °F 51.8 °F 100% 29.74 in 6.2 mi South 5.8 mph - N/A Rain Light Rain
10:00 PM 52 °F 51 °F 95% 29.75 in 14 mi South 6.7 mph - - Rain Light Rain
10:20 PM 51.8 °F 51.8 °F 100% 29.74 in 6.2 mi South 5.8 mph - N/A Rain Light Rain
10:50 PM 51.8 °F 51.8 °F 100% 29.77 in 3.7 mi SSW 5.8 mph - N/A Rain Light Rain
11:20 PM 51.8 °F 51.8 °F 100% 29.77 in 3.7 mi South 3.5 mph - N/A Rain Light Rain
11:50 PM 51.8 °F 51.8 °F 100% 29.77 in 2.5 mi SSW 3.5 mph - N/A Rain Light Rain